Location: M.A.R.S.Observatory
(35.4031°N, 81.5481°W)
Time: 20:40:35
(UTC-04:00)

Daily predictions for brighter satellites

Satellite Brightness Start Highest point End
(mag) Time Altitude Azimuth Time Altitude Azimuth Time Altitude Azimuth
Cosmos 2112 Rocket 4.1 20:52:26 10° NNW 20:57:49 89° W 21:03:10 10° SSE
Cosmos 1898 Rocket 3.5 20:53:53 10° SSW 20:59:09 82° ESE 21:04:29 10° NNE
Cosmos 1680 Rocket 3.9 20:54:45 10° NNW 21:00:04 73° WSW 21:05:21 10° S
CENTAUR R/B 3.5 20:57:30 10° SSE 21:01:41 20° ESE 21:06:10 10° ENE
Cosmos 990 Rocket 4.2 20:57:14 10° S 21:02:14 51° ESE 21:07:17 10° NNE
ISS -3.6 21:03:29 10° SSW 21:06:37 47° SE 21:09:45 10° ENE
ATLAS 5 CENTAUR R/B 4.5 21:09:34 10° NNE 21:12:06 13° NE 21:14:42 10° ENE
Tsikada Rocket 4.0 21:06:04 10° S 21:12:15 71° E 21:18:24 10° N
YAOGAN 6 3.8 21:12:58 10° SE 21:16:06 26° ENE 21:19:15 10° NNE
USA 186 1.8 21:19:13 10° S 21:21:43 60° W 21:24:28 10° NNW
Tiangong 2 2.6 21:19:19 10° NW 21:22:14 31° NNE 21:25:09 10° E
Hubble Space Telescope 2.7 21:20:07 10° WSW 21:22:56 18° SSW 21:25:45 10° SSE
Meteor 2-3 Rocket 3.8 21:20:01 10° S 21:25:40 62° E 21:31:16 10° NNE
Meteor 2-10 Rocket 3.9 21:19:57 10° N 21:25:48 84° W 21:31:35 10° S
Cosmos 2034 Rocket 4.2 21:19:52 10° N 21:26:04 78° W 21:32:11 10° S
GPS 2-04 Rocket1 2.4 21:23:27 10° W 21:27:13 90° SSW 21:30:48 10° E
COSMOS 2487 3.3 21:25:40 10° NNW 21:29:07 49° WSW 21:32:33 10° S
Meteor 1-26 Rocket 4.3 21:24:20 10° N 21:29:58 66° E 21:35:41 10° SSE
OAO 2 Rocket 3.6 21:25:17 10° W 21:30:14 54° SSW 21:34:09 15° SE
Helios 1B rocket 2.5 21:29:20 10° NNE 21:33:23 58° E 21:37:25 10° S
Cosmos 1634 Rocket 4.4 21:29:10 10° N 21:35:13 46° E 21:40:43 12° SSE
H-2A R/B 4.0 21:32:37 10° E 21:35:23 14° ENE 21:38:10 10° NNE
Cosmos 2082 Rocket 3.5 21:31:19 10° NW 21:36:33 39° WSW 21:41:46 10° S
Cosmos 1937 Rocket 4.1 21:33:04 10° SSW 21:38:07 59° WNW 21:43:12 10° N
CZ-4B DEB 3.2 21:37:46 21° SE 21:39:15 36° ENE 21:41:58 10° N
Cosmos 2344 4.2 21:32:55 10° S 21:39:34 32° ESE 21:46:22 10° NE
SL-19 R/B 4.4 21:35:25 10° SSE 21:41:04 85° ENE 21:47:08 10° NNW
Cosmos 1408 3.8 21:42:05 20° ESE 21:43:18 24° E 21:46:19 10° NE
Cosmos 1825 3.3 21:45:47 22° ESE 21:46:54 25° E 21:50:03 10° NE
Cosmos 1833 Rocket 4.3 21:42:43 10° NW 21:47:40 32° WSW 21:52:36 10° SSW
Meteor 1-29 2.9 21:44:53 10° NNE 21:48:23 71° ESE 21:51:50 10° S
Aurora 2 Rocket 4.5 21:46:04 10° WSW 21:49:04 15° SSW 21:51:00 12° S
TIMED 4.4 21:45:32 10° S 21:49:51 69° ESE 21:54:13 10° NNE
Resurs 01 Rocket 3.7 21:49:08 10° SSW 21:52:45 25° W 21:56:25 10° NW
Shenzhou-11 Module 2.4 21:50:44 10° WNW 21:53:46 56° NNE 21:55:05 29° E
Helios 1A 3.2 21:55:52 14° S 21:59:24 71° WSW 22:03:36 10° NNW
Molniya-1 3.6 21:58:17 10° SW 22:00:09 40° WNW 22:01:09 17° N
Cosmos 1892 4.1 21:57:45 10° SSW 22:01:23 40° W 22:05:01 10° N
MetOp-A 4.4 22:01:47 24° SE 22:04:48 52° ENE 22:09:59 10° N
COSMOS 2455 3.1 21:58:53 10° SSW 22:04:51 70° WNW 22:10:53 10° NNE
ERS-1 Rocket 3.0 22:03:26 24° SSE 22:06:26 64° ENE 22:11:25 10° N
Cosmos 1943 Rocket 2.1 22:04:40 10° S 22:10:10 60° ESE 22:15:39 10° NNE
Cosmos 2279 Rocket 4.2 22:04:12 10° N 22:10:18 51° E 22:13:33 27° SE
Cosmos 2263 4.1 22:07:40 10° SSW 22:13:26 83° ESE 22:19:12 10° NNE
Cosmos 2142 Rocket 4.4 22:09:16 10° N 22:15:25 88° E 22:19:54 20° S
NOAA 11 4.1 22:13:36 25° SSE 22:16:56 82° ENE 22:22:26 10° N
USA 215 3.5 22:19:36 26° ESE 22:23:22 59° NE 22:29:49 10° NW
Milstar 3 3.7 22:12:31 10° WSW 22:23:44 46° S 22:27:31 28° ESE
Cosmos 1340 3.2 22:22:24 10° N 22:25:58 41° ENE 22:25:58 41° ENE
Okean 1-7 3.0 22:23:08 10° N 22:27:33 81° W 22:29:17 36° S
Lacrosse 5 rocket 2.8 22:24:35 10° WSW 22:27:52 33° NW 22:31:13 10° NNE
Cosmos 2369 Rocket 3.0 22:22:31 10° SW 22:27:59 51° WNW 22:33:32 10° N
SPOT 1/Viking Rocket 3.9 22:31:52 39° ESE 22:33:08 47° ENE 22:38:07 10° N
SL-08 RB Rocket 3.8 22:35:00 50° SE 22:36:01 65° ENE 22:40:38 10° N
DNEPR-1 R/B 4.3 22:31:12 10° SW 22:36:38 64° WNW 22:41:13 10° NNE
Cosmos 1606 2.6 22:33:08 10° N 22:36:55 82° W 22:37:22 67° SSW
Cosmos 468 4.4 22:33:55 10° NNW 22:39:12 85° WSW 22:40:55 44° S
ISS -0.8 22:40:59 10° WNW 22:43:16 17° NNW 22:45:31 10° NNE
Cosmos 372 Rocket 4.2 22:40:36 11° SSW 22:45:25 67° WNW 22:50:31 10° NNE
Cosmos 1733 Rocket 3.0 22:45:52 61° E 22:45:52 61° E 22:50:01 10° NNE
OAO 3 Copernicus 4.2 22:41:27 10° WSW 22:46:27 68° SSE 22:47:06 61° ESE
Meteor 1-10 Rocket 4.5 22:41:40 10° NNW 22:47:35 71° W 22:50:18 33° S
Cosmos 1269 Rocket 3.9 22:42:26 10° NNW 22:47:43 73° ENE 22:48:45 56° SE
Meteor 1-27 Rocket 3.7 22:42:11 10° N 22:47:55 67° E 22:49:13 51° SE
Terra 2.9 22:49:48 30° ENE 22:49:48 30° ENE 22:53:54 10° N
Cosmos 1125 Rocket 4.4 22:46:18 10° SW 22:51:21 48° WNW 22:56:25 10° N
CENTAUR R/B 3.1 22:45:48 10° SW 22:51:35 56° NW 22:58:11 10° NNE
Nimbus 7 Rocket 4.3 22:51:24 10° NNE 22:57:19 88° ESE 22:59:42 38° SSW
ATLAS 5 CENTAUR R/B 2.6 22:51:48 10° NNW 22:57:52 63° ENE 22:59:28 48° ESE
Tiangong 2 3.1 22:56:08 10° WNW 22:57:47 26° W 22:57:47 26° W
SPOT 5 3.2 22:58:43 47° SSW 23:00:12 69° WSW 23:05:32 10° NNW
Meteor 2-20 4.4 23:03:29 57° SE 23:04:28 65° E 23:10:31 10° NNE
GPS 2-04 Rocket1 4.1 23:03:19 10° W 23:05:16 29° W 23:05:16 29° W
ARGOS 3.8 23:06:21 36° SSW 23:08:04 49° W 23:13:16 10° NNW
Cosmos 1782 4.5 23:05:44 10° NNW 23:09:07 27° W 23:09:53 25° WSW
Cosmos 1656 Rocket 3.5 23:10:03 66° SSW 23:10:53 87° ESE 23:16:25 10° NNE
H-2A R/B 2.3 23:13:15 56° SSW 23:14:11 67° WSW 23:19:33 10° NNW
CARTOSAT-1 4.2 23:19:18 48° NNE 23:19:18 48° NNE 23:22:38 10° N
Lacrosse 4 Rocket 1.9 23:16:58 10° NNW 23:20:44 62° NNW 23:20:44 62° NNW
Cosmos 1674 Rocket 4.1 23:21:30 10° N 23:24:54 54° NNW 23:24:54 54° NNW
Meteor 1-14 Rocket 4.5 23:26:51 58° ENE 23:26:51 58° ENE 23:32:09 10° NNE
Cosmos 1092 Rocket 3.9 23:27:20 66° SSW 23:28:16 85° W 23:34:26 10° N
ATLAS CENTAUR R/B 4.1 23:33:00 10° NE 23:33:00 10° NE 23:33:04 10° NE
Cosmos 494 Rocket 4.3 23:24:27 10° N 23:29:03 56° NE 23:29:03 56° NE
Nadezhda 4 Rocket 4.5 23:27:53 36° SW 23:30:11 56° W 23:36:15 10° N
SL-19 R/B 4.3 23:24:38 10° NNE 23:30:43 74° ESE 23:30:53 73° ESE
H-2A R/B 3.4 23:37:08 32° NNE 23:37:08 32° NNE 23:39:32 10° N
Cosmos 1627 Rocket 4.4 23:35:55 72° E 23:35:55 72° E 23:42:11 10° N
Cosmos 2227 Rocket 4.2 23:35:36 10° NNE 23:39:07 17° NE 23:39:30 16° ENE
Cosmos 2219 3.7 23:38:24 10° NNW 23:43:36 51° NE 23:43:36 51° NE
CZ-4B R/B 4.5 23:43:00 10° NNE 23:46:04 37° NE 23:46:04 37° NE
